| time (UTC) | temp C | wind direction | speed KPH | gust KPH | rain 1hr cm | rain 24hr cm | rain mn cm | humidity % | barometer mb |
| 20260506121612 | 10 | 297 | 9.7 | 14.5 | 0.00 | 0.00 | 0.00 | 91 | 1021.8 |
| 20260506121108 | 10 | 270 | 6.4 | 8.0 | 0.00 | 0.00 | 0.00 | 91 | 1021.7 |
| 20260506120606 | 10 | 293 | 9.7 | 14.5 | 0.00 | 0.00 | 0.00 | 90 | 1021.6 |
| 20260506115601 | 10 | 290 | 6.4 | 14.5 | 0.00 | 0.00 | 0.00 | 90 | 1021.6 |
| 20260506115059 | 10 | 305 | 11.3 | 17.7 | 0.00 | 0.00 | 0.00 | 90 | 1021.4 |
| 20260506114556 | 10 | 325 | 6.4 | 16.1 | 0.00 | 0.00 | 0.00 | 90 | 1021.6 |
| 20260506114054 | 10 | 329 | 9.7 | 20.9 | 0.00 | 0.00 | 0.00 | 90 | 1021.6 |
| 20260506113552 | 10 | 312 | 9.7 | 11.3 | 0.00 | 0.00 | 0.00 | 90 | 1021.6 |
| 20260506113049 | 10 | 328 | 12.9 | 17.7 | 0.00 | 0.00 | 0.00 | 90 | 1021.4 |
| 20260506112546 | 10 | 277 | 8.0 | 12.9 | 0.00 | 0.00 | 0.00 | 90 | 1021.3 |
| 20260506112043 | 10 | 318 | 4.8 | 12.9 | 0.00 | 0.00 | 0.00 | 90 | 1021.2 |
| 20260506111541 | 10 | 288 | 12.9 | 20.9 | 0.00 | 0.00 | 0.00 | 90 | 1021.4 |
| 20260506111038 | 10 | 305 | 12.9 | 14.5 | 0.00 | 0.00 | 0.00 | 90 | 1021.3 |
| 20260506110536 | 10 | 285 | 4.8 | 9.7 | 0.00 | 0.00 | 0.00 | 90 | 1021.0 |
| 20260506110033 | 10 | 320 | 8.0 | 11.3 | 0.00 | 0.00 | 0.00 | 91 | 1021.2 |
| 20260506105528 | 10 | 271 | 6.4 | 11.3 | 0.00 | 0.00 | 0.00 | 91 | 1020.9 |
| 20260506105026 | 10 | 280 | 3.2 | 9.7 | 0.00 | 0.00 | 0.00 | 91 | 1020.9 |
| 20260506104524 | 10 | 317 | 8.0 | 11.3 | 0.00 | 0.00 | 0.00 | 91 | 1021.0 |
| 20260506104022 | 10 | 342 | 4.8 | 17.7 | 0.00 | 0.00 | 0.00 | 91 | 1020.9 |
| 20260506103519 | 10 | 305 | 8.0 | 16.1 | 0.00 | 0.00 | 0.00 | 91 | 1020.7 |
| 20260506103015 | 10 | 309 | 6.4 | 14.5 | 0.00 | 0.00 | 0.00 | 91 | 1020.8 |
| 20260506102514 | 10 | 248 | 6.4 | 9.7 | 0.00 | 0.00 | 0.00 | 91 | 1020.7 |
| 20260506102011 | 10 | 282 | 6.4 | 12.9 | 0.00 | 0.00 | 0.00 | 91 | 1020.5 |
| 20260506101507 | 10 | 276 | 4.8 | 9.7 | 0.00 | 0.00 | 0.00 | 91 | 1020.7 |
| 20260506101004 | 10 | 316 | 8.0 | 9.7 | 0.00 | 0.00 | 0.00 | 91 | 1020.5 |
| 20260506100503 | 10 | 284 | 3.2 | 16.1 | 0.00 | 0.00 | 0.00 | 91 | 1020.4 |
| 20260506100000 | 10 | 279 | 4.8 | 9.7 | 0.00 | 0.00 | 0.00 | 91 | 1020.6 |
| 20260506095459 | 10 | 276 | 6.4 | 9.7 | 0.00 | 0.00 | 0.00 | 91 | 1020.5 |
| 20260506094954 | 10 | 298 | 6.4 | 8.0 | 0.00 | 0.00 | 0.00 | 91 | 1020.6 |
| 20260506094453 | 10 | 287 | 4.8 | 14.5 | 0.00 | 0.00 | 0.00 | 91 | 1020.4 |
| 20260506093950 | 10 | 272 | 8.0 | 14.5 | 0.00 | 0.00 | 0.00 | 91 | 1020.6 |
| 20260506093448 | 10 | 334 | 11.3 | 14.5 | 0.00 | 0.00 | 0.00 | 91 | 1020.7 |
| 20260506092946 | 10 | 294 | 8.0 | 12.9 | 0.00 | 0.00 | 0.00 | 91 | 1020.5 |
| 20260506092444 | 10 | 300 | 6.4 | 12.9 | 0.00 | 0.00 | 0.00 | 91 | 1020.4 |
| 20260506091940 | 10 | 238 | 1.6 | 11.3 | 0.00 | 0.00 | 0.00 | 91 | 1020.7 |
| 20260506091438 | 10 | 262 | 4.8 | 8.0 | 0.00 | 0.00 | 0.00 | 91 | 1020.6 |
| 20260506090935 | 10 | 277 | 6.4 | 12.9 | 0.00 | 0.00 | 0.00 | 91 | 1020.6 |
| 20260506090433 | 10 | 352 | 8.0 | 12.9 | 0.00 | 0.00 | 0.00 | 91 | 1020.4 |
| 20260506085929 | 10 | 271 | 3.2 | 14.5 | 0.00 | 0.00 | 0.00 | 91 | 1020.6 |
| 20260506085426 | 10 | 297 | 11.3 | 14.5 | 0.00 | 0.00 | 0.00 | 91 | 1020.4 |
| 20260506084922 | 10 | 235 | 4.8 | 14.5 | 0.00 | 0.00 | 0.00 | 91 | 1020.7 |
| 20260506084420 | 10 | 300 | 4.8 | 8.0 | 0.00 | 0.00 | 0.00 | 91 | 1020.5 |
| 20260506083915 | 10 | 256 | 11.3 | 12.9 | 0.00 | 0.00 | 0.00 | 91 | 1020.4 |
| 20260506083413 | 10 | 272 | 3.2 | 11.3 | 0.00 | 0.00 | 0.00 | 91 | 1020.4 |
| 20260506082910 | 10 | 315 | 11.3 | 16.1 | 0.00 | 0.00 | 0.00 | 91 | 1020.5 |
| 20260506082407 | 10 | 277 | 9.7 | 12.9 | 0.00 | 0.00 | 0.00 | 91 | 1020.4 |
| 20260506081902 | 10 | 301 | 8.0 | 12.9 | 0.00 | 0.00 | 0.00 | 91 | 1020.4 |
| 20260506081401 | 10 | 285 | 6.4 | 24.1 | 0.00 | 0.00 | 0.00 | 92 | 1020.3 |
| 20260506080858 | 10 | 302 | 6.4 | 16.1 | 0.00 | 0.00 | 0.00 | 92 | 1020.3 |
| 20260506080355 | 10 | 280 | 6.4 | 9.7 | 0.00 | 0.00 | 0.00 | 92 | 1020.3 |
| 20260506073339 | 10 | 248 | 4.8 | 11.3 | 0.00 | 0.00 | 0.00 | 92 | 1020.0 |
| 20260506072836 | 10 | 294 | 6.4 | 11.3 | 0.00 | 0.00 | 0.00 | 92 | 1020.0 |
| 20260506072333 | 10 | 274 | 4.8 | 17.7 | 0.00 | 0.00 | 0.00 | 92 | 1019.9 |
| 20260506071831 | 10 | 284 | 6.4 | 14.5 | 0.00 | 0.00 | 0.00 | 92 | 1019.8 |
| 20260506071329 | 10 | 314 | 4.8 | 12.9 | 0.00 | 0.00 | 0.00 | 92 | 1019.9 |
| 20260506070826 | 10 | 225 | 9.7 | 12.9 | 0.00 | 0.00 | 0.00 | 93 | 1019.8 |
| 20260506070323 | 10 | 314 | 8.0 | 11.3 | 0.00 | 0.00 | 0.00 | 93 | 1019.6 |
| 20260506062300 | 10 | 296 | 8.0 | 11.3 | 0.00 | 0.00 | 0.00 | 93 | 1019.5 |
| 20260506061755 | 10 | 249 | 4.8 | 8.0 | 0.00 | 0.00 | 0.00 | 93 | 1019.5 |
| 20260506061253 | 10 | 287 | 11.3 | 14.5 | 0.00 | 0.00 | 0.00 | 93 | 1019.4 |
| 20260506060751 | 10 | 256 | 8.0 | 14.5 | 0.00 | 0.00 | 0.00 | 93 | 1019.4 |
| 20260506060248 | 10 | 278 | 11.3 | 16.1 | 0.00 | 0.00 | 0.00 | 93 | 1019.5 |
| 20260506051220 | 10 | 324 | 6.4 | 14.5 | 0.00 | 0.00 | 0.00 | 92 | 1019.5 |
| 20260506050718 | 10 | 255 | 9.7 | 17.7 | 0.00 | 0.00 | 0.00 | 92 | 1019.4 |
| 20260506050215 | 10 | 222 | 9.7 | 14.5 | 0.00 | 0.00 | 0.00 | 92 | 1019.6 |
| 20260506044706 | 10 | 281 | 11.3 | 16.1 | 0.00 | 0.00 | 0.00 | 92 | 1019.5 |
| 20260506044203 | 10 | 299 | 11.3 | 12.9 | 0.00 | 0.00 | 0.00 | 92 | 1019.3 |
| 20260506043700 | 10 | 315 | 8.0 | 11.3 | 0.00 | 0.00 | 0.00 | 92 | 1019.2 |
| 20260506043158 | 10 | 256 | 9.7 | 16.1 | 0.00 | 0.00 | 0.00 | 92 | 1019.3 |
| 20260506042657 | 10 | 290 | 6.4 | 12.9 | 0.00 | 0.00 | 0.00 | 92 | 1019.4 |
| 20260506042155 | 10 | 279 | 8.0 | 12.9 | 0.00 | 0.00 | 0.00 | 92 | 1019.0 |
| 20260506041653 | 10 | 296 | 6.4 | 11.3 | 0.00 | 0.00 | 0.00 | 92 | 1019.0 |
| 20260506041149 | 10 | 237 | 4.8 | 22.5 | 0.00 | 0.00 | 0.00 | 92 | 1018.9 |
| 20260506040647 | 10 | 299 | 9.7 | 16.1 | 0.00 | 0.00 | 0.00 | 92 | 1018.8 |
| 20260506040144 | 10 | 258 | 9.7 | 17.7 | 0.00 | 0.00 | 0.00 | 92 | 1018.7 |
| 20260506035641 | 10 | 282 | 8.0 | 14.5 | 0.00 | 0.00 | 0.00 | 91 | 1018.7 |
| 20260506035137 | 10 | 301 | 4.8 | 12.9 | 0.00 | 0.00 | 0.00 | 91 | 1018.5 |
| 20260506034634 | 10 | 301 | 8.0 | 12.9 | 0.00 | 0.00 | 0.00 | 91 | 1018.6 |
| 20260506034131 | 10 | 279 | 12.9 | 16.1 | 0.00 | 0.00 | 0.00 | 91 | 1018.5 |
| 20260506033628 | 10 | 285 | 9.7 | 12.9 | 0.00 | 0.00 | 0.00 | 91 | 1018.5 |
| 20260506033125 | 10 | 277 | 6.4 | 12.9 | 0.00 | 0.00 | 0.00 | 91 | 1018.4 |
| 20260506032623 | 10 | 272 | 9.7 | 12.9 | 0.00 | 0.00 | 0.00 | 90 | 1018.3 |
| 20260506032120 | 10 | 298 | 9.7 | 12.9 | 0.00 | 0.00 | 0.00 | 90 | 1018.3 |
| 20260506031617 | 11 | 239 | 3.2 | 12.9 | 0.00 | 0.00 | 0.00 | 90 | 1018.3 |
| 20260506031114 | 11 | 268 | 9.7 | 16.1 | 0.00 | 0.00 | 0.00 | 90 | 1018.1 |
| 20260506030612 | 11 | 294 | 8.0 | 12.9 | 0.00 | 0.00 | 0.00 | 89 | 1018.3 |
| 20260506030109 | 11 | 269 | 4.8 | 12.9 | 0.00 | 0.00 | 0.00 | 89 | 1018.3 |
| 20260506025606 | 11 | 308 | 9.7 | 12.9 | 0.00 | 0.00 | 0.00 | 89 | 1018.4 |
| 20260506025102 | 11 | 298 | 4.8 | 12.9 | 0.00 | 0.00 | 0.00 | 88 | 1018.4 |
| 20260506024559 | 11 | 297 | 9.7 | 16.1 | 0.00 | 0.00 | 0.00 | 88 | 1018.5 |
| 20260506024055 | 11 | 289 | 8.0 | 11.3 | 0.00 | 0.00 | 0.00 | 88 | 1018.4 |
| 20260506023551 | 11 | 267 | 6.4 | 12.9 | 0.00 | 0.00 | 0.00 | 87 | 1018.5 |
| 20260506023049 | 12 | 288 | 8.0 | 20.9 | 0.00 | 0.00 | 0.00 | 87 | 1018.4 |
| 20260506022547 | 12 | 276 | 8.0 | 9.7 | 0.00 | 0.00 | 0.00 | 86 | 1018.3 |
| 20260506022044 | 12 | 285 | 8.0 | 14.5 | 0.00 | 0.00 | 0.00 | 86 | 1018.3 |
| 20260506021541 | 12 | 302 | 8.0 | 16.1 | 0.00 | 0.00 | 0.00 | 85 | 1018.5 |
| 20260506021038 | 12 | 285 | 4.8 | 12.9 | 0.00 | 0.00 | 0.00 | 85 | 1018.2 |
| 20260506020536 | 12 | 281 | 6.4 | 17.7 | 0.00 | 0.00 | 0.00 | 85 | 1018.4 |
| 20260506020033 | 12 | 266 | 4.8 | 20.9 | 0.00 | 0.00 | 0.00 | 85 | 1018.5 |
| 20260506015531 | 12 | 298 | 9.7 | 22.5 | 0.00 | 0.00 | 0.00 | 85 | 1018.5 |
| 20260506015027 | 12 | 252 | 8.0 | 11.3 | 0.00 | 0.00 | 0.00 | 85 | 1018.3 |
| 20260506014525 | 12 | 288 | 8.0 | 12.9 | 0.00 | 0.00 | 0.00 | 84 | 1018.3 |
| 20260506014021 | 12 | 292 | 4.8 | 17.7 | 0.00 | 0.00 | 0.00 | 83 | 1018.3 |
| 20260506013519 | 13 | 209 | 8.0 | 17.7 | 0.00 | 0.00 | 0.00 | 82 | 1018.4 |
| 20260506013015 | 13 | 261 | 8.0 | 12.9 | 0.00 | 0.00 | 0.00 | 82 | 1018.5 |
| 20260506012511 | 13 | 260 | 6.4 | 16.1 | 0.00 | 0.00 | 0.00 | 83 | 1018.6 |
| 20260506012009 | 13 | 313 | 8.0 | 14.5 | 0.00 | 0.00 | 0.00 | 82 | 1018.2 |
| 20260506011506 | 13 | 277 | 6.4 | 17.7 | 0.00 | 0.00 | 0.00 | 83 | 1018.5 |
| 20260506011002 | 13 | 311 | 8.0 | 14.5 | 0.00 | 0.00 | 0.00 | 81 | 1018.4 |
| 20260506010502 | 13 | 282 | 4.8 | 12.9 | 0.00 | 0.00 | 0.00 | 82 | 1018.3 |
| 20260506005957 | 13 | 284 | 6.4 | 12.9 | 0.00 | 0.00 | 0.00 | 82 | 1018.4 |
| 20260506005455 | 13 | 288 | 6.4 | 20.9 | 0.00 | 0.00 | 0.00 | 82 | 1018.3 |
| 20260506004950 | 13 | 294 | 8.0 | 12.9 | 0.00 | 0.00 | 0.00 | 82 | 1018.5 |
| 20260506004448 | 13 | 301 | 8.0 | 11.3 | 0.00 | 0.00 | 0.00 | 81 | 1018.4 |
| 20260506003944 | 13 | 259 | 8.0 | 16.1 | 0.00 | 0.00 | 0.00 | 81 | 1018.5 |
| 20260506003441 | 13 | 259 | 8.0 | 11.3 | 0.00 | 0.00 | 0.00 | 81 | 1018.6 |
| 20260506002937 | 13 | 271 | 8.0 | 16.1 | 0.00 | 0.00 | 0.00 | 82 | 1018.6 |
| 20260506002433 | 13 | 271 | 8.0 | 14.5 | 0.00 | 0.00 | 0.00 | 82 | 1018.6 |
| 20260506001928 | 13 | 287 | 6.4 | 14.5 | 0.00 | 0.00 | 0.00 | 81 | 1018.5 |
| 20260506001426 | 13 | 299 | 4.8 | 12.9 | 0.00 | 0.00 | 0.00 | 81 | 1018.7 |
| 20260506000923 | 13 | 275 | 6.4 | 11.3 | 0.00 | 0.00 | 0.00 | 81 | 1018.6 |
| 20260506000423 | 13 | 263 | 4.8 | 11.3 | 0.00 | 0.00 | 0.00 | 82 | 1018.7 |
| 20260505235917 | 13 | 290 | 3.2 | 14.5 | 0.00 | 0.00 | 0.00 | 82 | 1019.0 |
| 20260505235415 | 13 | 270 | 6.4 | 17.7 | 0.00 | 0.00 | 0.00 | 80 | 1018.7 |
| 20260505234912 | 13 | 203 | 4.8 | 14.5 | 0.00 | 0.00 | 0.00 | 81 | 1019.0 |
| 20260505234409 | 13 | 301 | 6.4 | 17.7 | 0.00 | 0.00 | 0.00 | 81 | 1018.8 |
| 20260505233906 | 13 | 279 | 8.0 | 11.3 | 0.00 | 0.00 | 0.00 | 80 | 1019.1 |
| 20260505233404 | 13 | 277 | 6.4 | 14.5 | 0.00 | 0.00 | 0.00 | 80 | 1018.9 |
| 20260505232901 | 13 | 323 | 11.3 | 22.5 | 0.00 | 0.00 | 0.00 | 80 | 1018.9 |
| 20260505232359 | 13 | 306 | 9.7 | 12.9 | 0.00 | 0.00 | 0.00 | 79 | 1018.9 |
| 20260505231855 | 13 | 301 | 4.8 | 14.5 | 0.00 | 0.00 | 0.00 | 81 | 1019.1 |
| 20260505231353 | 13 | 267 | 6.4 | 16.1 | 0.00 | 0.00 | 0.00 | 81 | 1019.1 |
| 20260505230851 | 15 | 310 | 9.7 | 12.9 | 0.00 | 0.00 | 0.00 | 78 | 1019.2 |
| 20260505230348 | 14 | 269 | 4.8 | 11.3 | 0.00 | 0.00 | 0.00 | 80 | 1019.3 |
| 20260505225844 | 15 | 281 | 9.7 | 17.7 | 0.00 | 0.00 | 0.00 | 78 | 1019.3 |
| 20260505225342 | 14 | 293 | 8.0 | 14.5 | 0.00 | 0.00 | 0.00 | 79 | 1019.3 |
| 20260505224836 | 14 | 300 | 8.0 | 14.5 | 0.00 | 0.00 | 0.00 | 79 | 1019.4 |
| 20260505224335 | 15 | 275 | 8.0 | 9.7 | 0.00 | 0.00 | 0.00 | 77 | 1019.4 |
| 20260505223832 | 15 | 254 | 4.8 | 9.7 | 0.00 | 0.00 | 0.00 | 78 | 1019.2 |
| 20260505223329 | 15 | 270 | 4.8 | 8.0 | 0.00 | 0.00 | 0.00 | 77 | 1019.4 |
| 20260505222824 | 14 | 323 | 9.7 | 14.5 | 0.00 | 0.00 | 0.00 | 80 | 1019.4 |
| 20260505222320 | 14 | 358 | 8.0 | 11.3 | 0.00 | 0.00 | 0.00 | 79 | 1019.4 |
| 20260505221818 | 15 | 23 | 6.4 | 20.9 | 0.00 | 0.00 | 0.00 | 80 | 1019.4 |
| 20260505221315 | 14 | 290 | 4.8 | 14.5 | 0.00 | 0.00 | 0.00 | 80 | 1019.4 |
| 20260505220812 | 13 | 316 | 6.4 | 14.5 | 0.00 | 0.00 | 0.00 | 81 | 1019.5 |
| 20260505220309 | 14 | 334 | 14.5 | 16.1 | 0.00 | 0.00 | 0.00 | 80 | 1019.4 |
| 20260505215807 | 13 | 296 | 3.2 | 16.1 | 0.00 | 0.00 | 0.00 | 82 | 1019.5 |
| 20260505215305 | 14 | 2 | 11.3 | 14.5 | 0.00 | 0.00 | 0.00 | 80 | 1019.7 |
| 20260505214802 | 15 | 256 | 6.4 | 9.7 | 0.00 | 0.00 | 0.00 | 79 | 1019.7 |
| 20260505214259 | 14 | 312 | 4.8 | 11.3 | 0.00 | 0.00 | 0.00 | 80 | 1019.5 |
| 20260505213756 | 14 | 259 | 4.8 | 8.0 | 0.00 | 0.00 | 0.00 | 80 | 1019.7 |
| 20260505213254 | 15 | 285 | 4.8 | 9.7 | 0.00 | 0.00 | 0.00 | 79 | 1019.8 |
| 20260505212749 | 14 | 322 | 6.4 | 12.9 | 0.00 | 0.00 | 0.00 | 82 | 1019.9 |
| 20260505212247 | 14 | 266 | 3.2 | 9.7 | 0.00 | 0.00 | 0.00 | 80 | 1019.7 |
| 20260505211744 | 14 | 264 | 4.8 | 9.7 | 0.00 | 0.00 | 0.00 | 82 | 1019.7 |
| 20260505211241 | 13 | 202 | 1.6 | 12.9 | 0.00 | 0.00 | 0.00 | 83 | 1019.9 |
| 20260505210737 | 13 | 266 | 4.8 | 9.7 | 0.00 | 0.00 | 0.00 | 82 | 1019.5 |
| 20260505210234 | 13 | 321 | 4.8 | 8.0 | 0.00 | 0.00 | 0.00 | 81 | 1019.7 |
| 20260505205732 | 13 | 309 | 4.8 | 8.0 | 0.00 | 0.00 | 0.00 | 82 | 1019.7 |
| 20260505205230 | 13 | 264 | 4.8 | 9.7 | 0.00 | 0.00 | 0.00 | 82 | 1019.7 |
| 20260505204726 | 14 | 274 | 4.8 | 4.8 | 0.00 | 0.00 | 0.00 | 81 | 1019.7 |
| 20260505204224 | 13 | 321 | 3.2 | 4.8 | 0.00 | 0.00 | 0.00 | 82 | 1019.7 |
| 20260505203721 | 13 | 281 | 6.4 | 11.3 | 0.00 | 0.00 | 0.00 | 83 | 1019.8 |
| 20260505203218 | 13 | 260 | 3.2 | 9.7 | 0.00 | 0.00 | 0.00 | 83 | 1019.8 |
| 20260505202713 | 13 | 268 | 4.8 | 12.9 | 0.00 | 0.00 | 0.00 | 84 | 1019.7 |
| 20260505202210 | 13 | 308 | 8.0 | 9.7 | 0.00 | 0.00 | 0.00 | 83 | 1019.9 |
| 20260505201706 | 13 | 243 | 1.6 | 11.3 | 0.00 | 0.00 | 0.00 | 84 | 1019.8 |
| 20260505201204 | 13 | 313 | 6.4 | 12.9 | 0.00 | 0.00 | 0.00 | 85 | 1019.8 |
| 20260505200702 | 13 | 303 | 4.8 | 12.9 | 0.00 | 0.00 | 0.00 | 84 | 1019.9 |
| 20260505200159 | 14 | 298 | 4.8 | 4.8 | 0.00 | 0.00 | 0.00 | 82 | 1019.7 |
| 20260505195654 | 13 | 282 | 4.8 | 4.8 | 0.00 | 0.00 | 0.00 | 82 | 1019.7 |
| 20260505195152 | 14 | 256 | 1.6 | 4.8 | 0.00 | 0.00 | 0.00 | 83 | 1019.8 |
| 20260505194649 | 13 | 268 | 3.2 | 4.8 | 0.00 | 0.00 | 0.00 | 83 | 1019.8 |
| 20260505194145 | 13 | 336 | 6.4 | 9.7 | 0.00 | 0.00 | 0.00 | 85 | 1019.7 |
| 20260505193642 | 13 | 350 | 6.4 | 9.7 | 0.00 | 0.00 | 0.00 | 85 | 1019.8 |
| 20260505193139 | 13 | 342 | 4.8 | 11.3 | 0.00 | 0.00 | 0.00 | 85 | 1019.8 |
| 20260505192638 | 13 | 309 | 3.2 | 8.0 | 0.00 | 0.00 | 0.00 | 86 | 1019.6 |
| 20260505192134 | 13 | 342 | 4.8 | 11.3 | 0.00 | 0.00 | 0.00 | 86 | 1019.7 |
| 20260505191633 | 12 | 241 | 1.6 | 4.8 | 0.00 | 0.00 | 0.00 | 86 | 1020.0 |
| 20260505191131 | 12 | 348 | 3.2 | 8.0 | 0.00 | 0.00 | 0.00 | 87 | 1019.9 |
| 20260505190626 | 12 | 292 | 4.8 | 8.0 | 0.00 | 0.00 | 0.00 | 87 | 1019.7 |
| 20260505190121 | 12 | 279 | 3.2 | 4.8 | 0.00 | 0.00 | 0.00 | 87 | 1019.6 |
| 20260505185618 | 12 | 313 | 4.8 | 8.0 | 0.00 | 0.00 | 0.00 | 88 | 1019.7 |
| 20260505185114 | 12 | 335 | 4.8 | 11.3 | 0.00 | 0.00 | 0.00 | 89 | 1019.6 |
| 20260505184611 | 12 | 335 | 8.0 | 9.7 | 0.00 | 0.00 | 0.00 | 88 | 1019.7 |
| 20260505184108 | 12 | 305 | 4.8 | 4.8 | 0.00 | 0.00 | 0.00 | 88 | 1019.7 |
| 20260505183605 | 12 | 304 | 4.8 | 8.0 | 0.00 | 0.00 | 0.00 | 88 | 1019.9 |
| 20260505183103 | 12 | 295 | 4.8 | 4.8 | 0.00 | 0.00 | 0.00 | 87 | 1019.8 |
| 20260505182558 | 12 | 264 | 3.2 | 3.2 | 0.00 | 0.00 | 0.00 | 87 | 1019.8 |
| 20260505182055 | 12 | 207 | 1.6 | 3.2 | 0.00 | 0.00 | 0.00 | 88 | 1019.9 |
| 20260505181552 | 12 | 308 | 6.4 | 11.3 | 0.00 | 0.00 | 0.00 | 88 | 1019.7 |
| 20260505181049 | 11 | 315 | 3.2 | 11.3 | 0.00 | 0.00 | 0.00 | 89 | 1019.8 |
| 20260505180545 | 12 | 240 | 4.8 | 9.7 | 0.00 | 0.00 | 0.00 | 89 | 1019.6 |
| 20260505180043 | 11 | 335 | 11.3 | 12.9 | 0.00 | 0.00 | 0.00 | 89 | 1019.5 |
| 20260505175538 | 12 | 359 | 6.4 | 12.9 | 0.00 | 0.00 | 0.00 | 90 | 1019.7 |
| 20260505175035 | 12 | 331 | 9.7 | 11.3 | 0.00 | 0.00 | 0.00 | 89 | 1019.5 |
| 20260505174532 | 11 | 7 | 8.0 | 11.3 | 0.00 | 0.00 | 0.00 | 90 | 1019.5 |
| 20260505174028 | 11 | 351 | 9.7 | 12.9 | 0.00 | 0.00 | 0.00 | 90 | 1019.3 |
| 20260505173525 | 11 | 9 | 8.0 | 11.3 | 0.00 | 0.00 | 0.00 | 90 | 1019.5 |
| 20260505173022 | 11 | 296 | 6.4 | 9.7 | 0.00 | 0.00 | 0.00 | 90 | 1019.4 |
| 20260505172520 | 11 | 336 | 6.4 | 12.9 | 0.00 | 0.00 | 0.00 | 90 | 1019.3 |
| 20260505172015 | 11 | 344 | 6.4 | 9.7 | 0.00 | 0.00 | 0.00 | 91 | 1019.4 |
| 20260505171511 | 11 | 6 | 11.3 | 12.9 | 0.00 | 0.00 | 0.00 | 91 | 1019.2 |
| 20260505171008 | 11 | 0 | 8.0 | 9.7 | 0.00 | 0.00 | 0.00 | 92 | 1019.4 |
| 20260505170504 | 11 | 316 | 4.8 | 9.7 | 0.00 | 0.00 | 0.00 | 92 | 1019.2 |
| 20260505165959 | 11 | 351 | 4.8 | 8.0 | 0.00 | 0.00 | 0.00 | 92 | 1019.4 |
| 20260505165456 | 11 | 8 | 3.2 | 8.0 | 0.00 | 0.00 | 0.00 | 93 | 1019.3 |
| 20260505164951 | 11 | 327 | 4.8 | 8.0 | 0.00 | 0.00 | 0.00 | 94 | 1019.4 |
| 20260505164448 | 11 | 1 | 8.0 | 9.7 | 0.00 | 0.00 | 0.00 | 95 | 1019.4 |
| 20260505163946 | 11 | 323 | 8.0 | 9.7 | 0.00 | 0.00 | 0.00 | 95 | 1019.3 |
| 20260505163444 | 11 | 297 | 3.2 | 9.7 | 0.00 | 0.00 | 0.00 | 96 | 1019.3 |
| 20260505162944 | 11 | 343 | 9.7 | 11.3 | 0.00 | 0.00 | 0.00 | 96 | 1019.3 |
| 20260505162439 | 11 | 354 | 8.0 | 9.7 | 0.00 | 0.00 | 0.00 | 96 | 1019.3 |
| 20260505161936 | 11 | 319 | 4.8 | 4.8 | 0.00 | 0.00 | 0.00 | 96 | 1019.2 |
| 20260505161432 | 10 | 332 | 6.4 | 9.7 | 0.00 | 0.00 | 0.00 | 96 | 1019.3 |
| 20260505160930 | 10 | 327 | 6.4 | 9.7 | 0.00 | 0.00 | 0.00 | 96 | 1019.2 |
| 20260505160428 | 10 | 299 | 6.4 | 11.3 | 0.00 | 0.00 | 0.00 | 96 | 1019.2 |
| 20260505152904 | 11 | 259 | 1.6 | 3.2 | 0.00 | 0.00 | 0.00 | 96 | 1018.8 |
| 20260505152401 | 11 | 271 | 1.6 | 1.6 | 0.00 | 0.00 | 0.00 | 96 | 1018.9 |
| 20260505151855 | 11 | 274 | 3.2 | 4.8 | 0.00 | 0.00 | 0.00 | 96 | 1018.9 |
| 20260505151352 | 11 | 258 | 1.6 | 3.2 | 0.00 | 0.00 | 0.00 | 96 | 1019.1 |
| 20260505150850 | 10 | 313 | 3.2 | 4.8 | 0.00 | 0.00 | 0.00 | 96 | 1018.7 |
| 20260505150347 | 10 | 267 | 1.6 | 4.8 | 0.00 | 0.00 | 0.00 | 96 | 1018.7 |
| 20260505140317 | 10 | 245 | 0.0 | 1.6 | 0.00 | 0.00 | 0.00 | 94 | 1018.1 |
| 20260505130240 | 10 | 281 | 4.8 | 4.8 | 0.00 | 0.00 | 0.00 | 94 | 1017.3 |
| 20260505124731 | 10 | 281 | 3.2 | 4.8 | 0.00 | 0.00 | 0.00 | 94 | 1017.2 |
| 20260505124228 | 10 | 278 | 3.2 | 9.7 | 0.00 | 0.00 | 0.00 | 94 | 1017.4 |
| 20260505123723 | 10 | 301 | 4.8 | 8.0 | 0.00 | 0.00 | 0.00 | 94 | 1017.3 |
| 20260505123220 | 10 | 281 | 4.8 | 4.8 | 0.00 | 0.00 | 0.00 | 94 | 1017.4 |
| 20260505122716 | 10 | 281 | 1.6 | 3.2 | 0.00 | 0.00 | 0.00 | 94 | 1017.1 |
| 20260505122214 | 10 | 268 | 1.6 | 4.8 | 0.00 | 0.00 | 0.00 | 94 | 1017.1 |